Wind_Speed
58 56 55 53 51 52 59 61 60 60 59 57 55 52 48 44 40 36 33 29 26 23 21 21 23 25 28 28 28 28 29 30 30 33 36 36 35 32 29 23 27 36 29 23 24 21 21 23 23 24 23 24 25 24 25 24 24 24 20 17 14 11 12 11 11 12 12 14 15 14 14 13 13 14 13 13 14 14 13 14 13 13 14 12 13 13 12 13
59 57 54 54 52 50 56 61 61 61 60 59 57 54 50 46 42 39 36 31 27 25 22 22 23 24 26 26 25 26 28 28 29 32 31 33 36 35 30 22 25 34 34 28 23 19 23 24 23 23 22 23 25 24 24 24 24 25 19 14 13 11 13 13 12 15 14 13 14 14 15 14 14 14 14 14 14 13 13 14 14 14 14 13 13 13 13 14
59 58 55 54 53 50 54 60 61 61 61 60 58 55 52 48 45 41 37 33 29 26 24 23 24 25 25 25 24 25 26 27 30 28 25 29 33 36 31 22 23 29 32 33 28 21 23 27 23 22 22 23 24 24 24 24 24 26 22 15 12 11 14 16 14 16 14 12 13 14 16 16 16 16 15 15 15 14 14 14 14 13 13 14 14 14 14 14
60 60 57 54 53 50 52 58 61 61 61 60 59 57 53 50 46 43 39 35 31 28 26 25 26 26 26 25 25 25 25 27 30 22 20 26 29 36 33 22 24 26 25 31 32 22 21 27 23 21 22 22 24 24 24 25 24 25 24 16 11 12 14 14 13 14 13 12 12 13 16 17 16 16 16 16 15 13 14 14 14 13 14 15 15 15 15 15
61 59 56 56 55 50 50 56 60 61 61 59 59 58 54 52 48 44 41 36 33 30 28 27 27 28 26 26 25 25 24 25 27 19 22 27 25 34 33 25 26 24 23 27 30 23 22 27 26 22 21 22 24 23 24 25 25 23 25 21 13 13 13 13 13 13 12 11 11 13 15 16 16 16 16 17 14 12 15 16 16 17 17 17 16 16 16 15
62 59 56 56 56 51 50 55 59 60 61 60 59 58 56 53 50 46 42 38 35 32 31 29 29 29 28 28 27 27 26 23 21 18 23 27 26 31 31 30 31 25 24 26 27 26 25 27 28 26 23 23 24 22 23 25 25 19 20 25 18 14 14 12 13 13 12 11 10 12 13 14 15 15 16 17 16 16 18 18 18 19 18 17 17 17 16 15
62 59 56 55 55 52 49 53 57 60 61 61 59 58 57 54 51 47 44 40 37 35 34 32 30 30 30 30 29 29 29 25 21 16 19 25 26 30 32 33 34 28 25 25 28 29 27 27 28 28 24 23 23 22 23 24 25 18 14 23 21 16 14 12 14 14 12 11 11 11 12 13 13 14 16 16 18 19 18 18 18 17 17 17 16 16 16 16
60 59 58 55 54 53 51 51 56 60 61 61 60 59 58 55 53 49 45 41 38 37 36 34 32 31 32 32 30 30 28 25 24 17 15 22 25 29 32 35 35 30 25 24 27 28 26 25 26 27 24 23 23 23 24 23 24 22 15 20 22 18 15 13 14 14 13 11 11 11 11 12 13 14 15 16 18 19 17 17 17 16 16 16 14 14 15 15
60 59 58 57 54 54 53 53 55 59 62 61 60 59 58 56 53 50 47 42 40 39 38 36 34 32 33 33 31 30 25 20 21 15 10 17 25 29 33 36 35 28 24 23 26 27 26 24 23 24 24 24 23 22 24 23 23 25 22 20 21 19 16 15 14 14 13 12 11 11 11 11 11 13 14 17 19 18 17 17 17 16 16 16 15 15 14 15
59 56 55 56 54 53 55 55 56 59 61 61 60 59 58 56 54 51 47 43 41 41 40 38 35 33 35 34 31 29 22 18 18 12 7 14 21 26 32 36 32 26 23 23 26 28 26 23 21 22 23 23 24 23 24 24 22 24 26 22 20 20 18 16 15 15 13 13 13 12 12 11 11 12 14 18 19 16 16 17 16 16 16 17 17 16 16 16
58 53 52 52 52 52 53 55 57 60 61 61 60 59 58 56 54 51 48 44 43 43 41 39 36 34 34 32 30 27 21 18 19 15 10 14 18 22 31 35 30 26 24 24 26 27 25 22 21 21 22 23 24 23 24 25 23 22 24 23 21 20 19 19 17 16 14 13 13 13 13 13 13 14 14 17 16 14 15 15 16 16 16 17 18 18 17 17
56 52 52 51 49 50 51 54 56 59 61 61 60 59 57 55 54 51 48 45 44 44 43 41 38 35 34 32 30 28 23 19 20 20 15 15 18 23 31 31 27 26 24 23 25 26 26 24 23 23 22 22 24 22 23 26 24 22 22 23 23 21 20 21 19 18 16 14 14 13 13 16 17 15 13 15 15 15 15 15 16 16 17 18 18 18 17 17
54 51 52 50 48 48 50 54 56 58 60 60 59 58 57 55 53 52 49 46 46 46 45 42 39 37 37 35 32 30 27 22 19 21 20 17 19 27 32 27 25 26 25 24 25 26 27 25 24 25 23 21 22 22 21 24 25 22 21 20 21 22 21 22 21 19 18 16 15 13 13 14 15 15 14 14 15 15 15 16 16 17 18 19 19 18 18 18
54 52 51 49 47 47 50 53 54 57 59 58 58 58 56 55 54 52 50 48 47 47 46 43 40 38 38 35 33 32 29 25 20 19 22 20 20 28 31 26 25 27 27 26 25 26 26 25 25 26 26 22 21 23 20 21 24 22 21 21 21 19 21 23 22 20 20 19 17 15 15 11 10 14 15 14 15 15 15 16 17 18 19 19 19 19 19 18
54 52 51 50 48 46 48 51 52 55 57 57 57 57 56 55 54 52 51 49 48 48 47 43 40 40 40 36 35 35 31 28 23 20 22 22 22 30 31 27 27 27 28 27 26 25 25 25 26 26 27 24 20 21 20 20 23 22 20 21 20 18 17 22 24 22 22 21 19 17 15 11 12 16 15 14 15 15 15 16 17 19 20 20 20 20 20 19
54 51 51 51 49 46 47 48 49 52 55 56 57 56 55 54 53 52 51 49 48 49 47 43 42 43 42 39 39 38 35 32 26 21 24 24 24 31 32 29 29 29 29 29 27 26 25 25 27 27 27 25 20 20 19 19 22 25 23 18 20 21 16 18 24 25 24 22 21 21 16 10 13 18 16 15 16 15 16 16 18 19 20 21 21 21 21 20
53 50 50 50 48 45 46 47 48 51 54 55 56 54 53 52 51 51 49 48 49 49 46 44 44 43 41 40 41 41 37 33 27 24 25 25 24 29 32 31 30 30 29 29 28 27 25 26 28 27 26 25 21 19 18 20 21 25 27 17 15 23 17 14 21 26 26 25 23 24 23 16 15 18 16 15 17 17 17 17 18 19 20 21 22 22 23 22
51 49 49 49 47 45 45 46 47 50 52 54 54 53 52 51 50 50 50 50 50 47 45 45 44 42 41 42 44 43 40 33 28 27 27 26 25 27 30 30 29 29 28 28 28 28 27 28 27 24 26 26 24 24 22 21 20 21 25 18 12 21 22 15 18 24 26 26 25 26 27 24 22 23 19 16 17 17 18 19 19 19 20 21 22 23 23 23
50 50 49 47 46 44 45 46 48 50 52 53 53 53 51 50 50 50 51 52 53 51 49 51 51 47 43 44 46 43 39 33 29 30 30 27 26 26 29 28 27 27 28 28 29 29 29 29 28 25 27 31 30 28 23 17 16 18 24 24 19 23 27 25 24 26 26 26 28 28 28 27 25 25 23 21 20 18 18 20 20 20 21 22 22 23 23 23
51 51 49 46 45 44 45 46 49 51 52 54 55 55 54 54 53 52 53 54 54 53 53 53 54 51 42 39 44 42 36 32 32 34 32 29 26 26 29 28 26 27 28 29 29 30 29 31 33 31 29 30 30 26 22 16 13 15 22 25 24 22 23 28 31 29 26 24 25 26 26 27 26 25 25 26 24 22 22 22 21 21 21 22 23 23 23 23
51 50 49 46 45 45 45 46 49 50 53 55 57 57 57 58 58 58 58 57 56 55 54 53 52 52 45 35 35 38 35 33 35 35 32 30 28 27 30 30 28 29 29 28 29 30 30 32 35 34 27 24 26 26 24 21 17 17 21 23 22 20 18 22 28 27 25 24 22 24 26 27 27 26 25 26 27 26 26 24 23 22 23 23 23 23 22 22
50 49 48 46 45 44 45 46 49 51 54 55 56 56 55 56 58 57 58 59 59 58 56 54 52 52 50 37 29 33 35 35 36 36 34 32 30 29 31 32 30 29 30 29 29 29 31 33 33 32 28 24 27 30 28 25 23 20 20 21 20 21 21 20 22 23 23 22 23 26 28 29 28 28 27 26 27 28 27 26 24 23 24 24 24 22 22 23
51 49 46 45 44 43 44 47 49 52 55 55 55 55 54 54 55 52 54 57 57 55 52 50 49 47 47 37 28 31 35 35 37 37 35 34 32 30 31 33 30 29 31 31 31 30 29 30 29 30 31 29 28 28 27 25 24 21 17 17 17 19 21 18 17 21 22 21 23 26 28 29 29 29 29 27 27 28 27 27 27 25 25 25 24 23 22 22
50 47 45 44 41 42 46 47 51 54 55 55 54 54 53 53 53 49 50 52 51 51 48 45 44 42 43 35 24 29 34 34 37 37 36 35 33 31 32 32 31 31 32 31 31 29 27 27 29 30 30 29 27 25 26 24 21 22 20 15 14 17 19 16 14 16 20 21 23 23 22 27 31 30 29 27 27 29 28 28 28 27 27 26 25 24 22 21
49 46 45 43 41 45 47 49 54 55 54 54 54 53 51 52 51 46 48 46 39 42 44 42 40 39 42 35 22 26 34 34 36 36 36 36 34 33 32 32 32 33 33 31 29 27 28 28 28 29 28 27 26 25 26 24 18 19 23 21 16 15 17 17 15 12 13 17 21 19 13 17 23 25 27 28 28 28 28 29 29 28 27 27 27 25 24 23
47 46 45 42 44 48 51 54 56 55 55 55 53 52 51 50 47 43 44 36 28 36 41 38 39 38 40 36 26 26 31 34 35 34 35 36 35 33 33 33 33 32 32 31 28 26 29 30 27 26 27 27 27 26 27 26 20 15 20 24 21 17 15 16 16 12 9 10 14 16 13 9 11 13 18 23 26 28 29 29 29 29 29 28 27 27 26 26
47 46 44 44 49 52 57 59 58 58 57 54 53 52 50 49 46 43 36 20 17 36 41 38 38 38 40 37 30 28 29 34 36 34 35 36 35 34 34 35 33 32 33 31 29 28 30 31 28 25 25 27 28 27 27 26 22 15 15 21 21 20 19 16 15 13 10 9 9 13 15 12 13 14 16 20 21 23 27 29 29 29 29 28 28 28 28 28
45 45 45 47 51 55 59 59 60 60 56 54 53 51 50 48 45 43 28 8 12 34 42 42 40 39 41 35 29 31 31 34 38 38 38 37 35 34 32 33 34 34 34 32 29 28 30 31 29 25 23 26 28 27 26 25 23 18 14 17 18 19 20 17 15 14 14 11 9 13 14 10 13 18 21 24 24 23 24 25 27 29 30 29 29 29 29 29
43 44 47 50 53 56 57 57 58 56 53 53 51 49 49 46 43 38 18 5 15 31 39 43 41 40 41 34 30 35 33 32 38 39 39 37 35 35 31 30 33 33 33 32 29 26 28 29 27 26 24 24 26 26 24 23 24 23 18 16 16 15 17 15 14 14 13 10 10 14 16 10 10 14 18 22 24 25 23 23 25 26 27 29 29 29 29 28
42 45 49 53 58 59 59 56 53 51 51 50 48 48 46 43 43 29 8 9 21 29 37 42 42 42 42 36 34 37 35 33 38 39 38 37 35 35 33 30 31 31 30 30 28 26 26 27 26 27 26 25 24 24 24 23 24 24 21 18 15 13 14 13 12 11 7 9 12 15 16 12 8 9 14 21 25 24 22 23 25 24 24 26 27 28 28 28
42 47 51 57 60 61 60 56 53 52 50 48 46 47 44 42 40 19 4 16 25 29 40 44 43 43 44 41 38 39 37 33 37 40 40 40 38 36 34 31 30 28 27 29 29 27 25 24 26 29 30 28 25 22 23 25 24 23 20 18 13 9 9 9 9 10 7 6 11 16 17 14 11 9 9 14 21 21 20 23 24 23 24 25 25 26 27 26
43 47 52 56 58 59 57 53 54 54 51 52 49 48 46 37 26 14 11 20 22 29 44 47 46 47 45 42 39 42 39 33 36 39 41 43 40 40 37 32 32 27 23 27 30 27 25 24 26 27 29 30 26 23 22 23 25 23 19 18 15 8 7 8 7 8 8 5 7 14 14 13 19 22 14 8 10 13 16 21 22 24 25 25 25 25 24 24
43 47 50 53 54 54 51 49 53 53 53 55 51 51 47 28 19 23 24 22 20 32 47 50 49 49 45 38 35 43 41 34 36 36 39 43 39 41 39 33 35 29 20 23 27 23 17 20 26 26 27 28 27 25 24 25 26 25 22 20 16 9 5 7 6 6 7 5 7 11 9 10 19 24 24 19 16 17 17 17 19 21 23 24 25 24 24 24
41 46 48 49 49 47 46 48 51 53 55 56 54 51 37 21 27 36 31 26 23 31 46 50 48 47 44 35 33 43 40 32 36 36 37 42 39 40 41 37 38 33 24 24 27 25 15 14 23 26 24 25 27 27 26 26 27 26 23 20 18 13 7 6 6 5 4 4 7 10 7 8 9 9 13 17 21 25 24 21 20 19 20 22 23 24 24 24
39 43 45 47 47 46 48 49 52 55 56 57 56 46 30 26 35 37 36 37 31 33 46 49 48 47 40 31 32 42 41 33 37 37 37 43 43 43 45 42 41 37 31 27 27 30 24 18 24 29 27 25 25 27 27 24 24 26 26 23 20 17 10 5 3 3 3 3 5 11 10 14 13 7 6 7 12 20 24 26 26 22 21 20 20 21 21 21
40 42 44 47 49 50 51 51 54 57 57 60 56 44 41 42 39 35 41 45 38 40 47 44 45 45 34 29 35 41 41 37 39 39 38 42 43 43 45 44 44 42 37 29 24 27 25 18 22 28 30 30 26 26 30 26 22 25 28 29 27 22 15 7 2 2 3 2 5 10 13 17 16 13 14 13 10 10 15 22 26 24 21 20 19 19 18 18
43 46 46 49 52 53 54 54 56 58 58 61 58 53 54 48 37 37 45 47 38 39 46 41 39 41 34 33 41 44 43 38 38 40 38 38 37 41 46 43 43 45 40 33 28 28 27 19 20 24 26 31 29 25 30 30 24 24 28 32 30 24 20 14 5 2 4 4 5 10 13 13 10 9 13 17 16 11 9 12 19 22 22 21 21 20 19 18
45 48 48 49 53 54 55 55 57 60 60 60 58 55 52 41 33 39 46 48 39 35 45 44 40 40 35 35 41 45 44 38 39 39 35 35 33 37 48 44 41 44 42 38 32 29 29 19 17 23 23 26 29 26 27 30 28 25 25 30 27 16 15 17 11 3 4 5 3 7 11 13 15 12 9 11 15 15 13 11 13 16 17 20 21 20 20 19
46 48 48 50 53 55 57 58 59 61 60 63 60 50 46 43 39 39 42 46 40 34 42 46 45 45 39 37 41 47 45 37 39 40 31 32 30 29 42 45 40 41 42 41 35 29 30 19 12 20 24 24 27 29 29 30 31 28 24 27 28 19 12 16 17 9 4 5 5 4 5 10 19 21 16 13 13 14 16 15 15 15 15 18 20 21 21 20
48 50 50 52 55 56 58 59 61 63 63 68 63 49 46 48 45 39 37 41 40 35 39 44 48 49 43 39 41 49 49 37 38 42 32 32 33 28 36 42 39 40 40 40 38 31 30 22 13 16 22 23 25 29 32 33 33 32 28 27 30 27 16 12 16 16 9 4 4 5 4 5 9 10 12 15 16 17 17 17 19 19 17 17 20 23 22 20
50 51 53 54 57 59 61 62 63 66 66 67 62 50 47 47 45 41 36 39 41 37 38 42 46 49 48 44 42 49 50 39 38 43 37 37 39 33 35 40 39 39 38 40 40 34 28 25 19 18 22 26 27 29 32 32 33 35 34 31 31 33 25 11 9 17 18 11 5 4 4 4 4 4 4 8 11 14 17 18 18 17 16 16 19 23 23 20
51 53 56 58 59 61 65 66 66 68 67 65 61 54 50 46 44 44 38 37 40 38 36 38 41 46 49 49 48 50 50 45 42 44 42 42 43 37 36 39 38 37 37 38 40 37 31 25 20 19 22 26 27 29 31 31 32 34 34 33 30 31 30 18 8 13 20 18 12 5 3 7 12 11 11 11 9 10 16 20 18 15 14 14 17 21 22 19
54 54 56 59 61 64 67 67 68 68 66 66 63 55 50 46 43 45 41 37 40 40 37 35 38 42 45 47 51 51 50 48 46 48 46 43 42 39 35 36 36 35 36 36 37 38 33 26 21 17 17 24 26 27 29 30 30 32 34 35 33 32 34 28 17 10 11 17 15 6 4 14 23 23 18 13 9 11 14 16 15 12 12 13 15 19 21 21
56 54 56 59 61 65 69 69 70 72 69 66 63 54 49 46 43 44 44 40 40 42 39 36 36 39 41 42 45 49 49 45 44 47 47 42 41 41 37 35 33 33 36 35 35 36 31 26 24 15 7 10 16 17 21 27 31 33 35 37 36 35 35 33 26 15 9 14 16 10 9 17 22 22 17 11 10 13 14 14 14 14 15 15 16 19 21 22
55 53 55 59 62 67 71 71 72 75 71 64 59 53 49 45 41 43 45 42 41 42 41 39 36 35 36 37 38 43 47 45 42 44 47 45 42 40 38 36 32 30 32 31 32 33 30 29 29 20 10 7 10 14 21 29 34 36 37 38 38 37 36 34 29 19 12 15 18 17 17 19 18 19 17 15 15 16 14 13 14 16 18 19 19 20 22 22
56 56 56 59 61 66 72 72 72 74 73 66 58 51 48 46 42 40 42 42 42 42 41 39 37 34 33 34 35 37 41 45 42 41 44 47 45 42 40 38 34 30 29 30 31 30 29 31 33 31 28 26 25 28 32 33 34 35 36 38 38 39 39 37 29 23 22 22 22 27 31 27 25 25 20 16 16 16 14 12 12 14 18 21 21 21 21 21
55 59 63 65 63 64 70 71 71 73 74 69 61 54 51 48 44 40 40 42 42 42 42 40 39 39 36 34 34 32 35 41 43 39 38 40 44 43 40 39 37 34 31 32 33 33 31 30 31 33 36 36 34 33 33 34 35 35 35 36 38 39 41 41 36 35 34 23 21 33 40 37 36 33 26 21 20 18 16 13 12 14 18 20 21 22 22 22
54 58 63 67 67 69 74 75 73 73 72 68 62 57 52 49 46 44 43 44 43 43 43 41 40 42 41 38 36 34 34 37 40 40 36 34 37 40 40 38 37 36 33 31 34 36 35 32 32 33 34 35 33 30 30 30 32 34 35 37 37 39 42 43 42 43 39 30 29 38 40 39 40 37 33 33 28 20 16 14 14 16 19 21 22 23 24 24
52 56 60 63 64 68 75 76 72 68 68 66 59 55 55 53 50 49 47 47 46 45 45 44 43 42 42 40 38 36 36 37 39 40 38 34 32 34 36 36 34 36 34 32 34 35 34 35 35 33 34 37 35 33 32 29 28 31 34 36 37 38 41 42 41 41 41 41 42 41 39 41 41 36 34 34 29 22 19 17 16 18 21 22 22 23 25 26
52 56 60 62 61 63 69 73 70 63 63 64 57 52 54 55 52 51 49 49 49 48 47 47 46 44 42 40 39 38 38 39 39 38 37 35 33 31 32 33 33 35 35 33 33 34 34 34 34 34 33 35 36 37 36 33 31 31 30 32 34 36 37 40 41 40 43 46 44 42 44 45 41 35 33 33 32 29 24 20 19 20 23 24 22 22 25 27
52 54 59 63 61 60 65 71 70 62 60 65 63 57 55 55 54 53 50 49 50 50 50 50 47 44 41 40 40 39 38 36 34 33 32 31 31 30 30 30 31 33 36 35 34 35 35 33 33 33 30 31 35 36 36 38 36 33 32 32 33 35 37 40 41 41 43 45 43 44 47 44 37 34 34 35 35 34 30 26 22 23 26 26 23 21 25 28
53 54 59 62 59 56 60 66 65 58 58 68 70 63 59 56 57 55 49 47 49 49 49 49 47 44 42 41 41 40 37 33 32 30 29 27 27 27 29 29 28 28 31 35 37 38 38 37 36 33 30 32 35 34 36 36 27 27 37 40 39 40 40 40 40 39 39 41 43 45 44 39 35 34 35 36 37 36 35 32 26 25 27 27 25 25 27 30
Wind_Direction
205 207 209 208 207 208 211 211 209 207 204 203 205 205 205 203 201 201 200 201 202 205 207 207 210 209 206 207 206 204 206 211 213 218 219 214 211 202 202 213 212 206 196 185 187 193 200 193 190 191 190 189 189 188 186 185 187 191 196 197 207 217 220 223 216 208 210 223 221 215 216 214 214 211 206 206 209 209 207 206 203 205 206 204 207 205 199 199
205 206 208 209 206 207 210 211 209 208 205 203 205 206 205 204 202 202 202 201 202 205 207 207 207 206 203 203 203 205 210 214 216 221 220 215 214 207 205 218 217 211 204 186 175 188 196 191 193 192 191 191 191 190 187 187 188 191 193 199 209 210 214 218 212 210 214 222 222 218 217 216 215 212 210 212 213 213 214 213 210 211 210 209 211 208 204 202
204 205 207 209 206 205 208 210 210 209 206 203 204 206 206 205 203 203 203 202 203 205 207 208 207 205 203 204 207 210 213 218 222 224 220 219 221 213 209 217 214 211 210 196 181 188 195 190 191 191 192 192 192 192 190 189 190 194 194 195 208 209 215 220 217 217 221 227 226 219 215 212 213 210 208 212 214 213 214 216 214 215 215 213 214 212 207 205
204 206 207 208 206 204 206 209 210 209 208 204 204 206 206 206 205 203 204 203 203 206 208 208 208 207 206 207 208 211 216 225 232 233 226 229 228 216 213 213 206 205 208 202 192 189 197 195 192 192 193 194 194 194 194 192 193 198 196 192 211 219 217 220 218 219 224 231 224 215 212 210 210 209 208 211 212 214 215 215 213 213 216 213 214 213 208 206
204 208 208 209 208 205 206 208 210 209 209 206 203 206 207 207 206 205 205 204 204 206 209 209 209 208 208 208 208 211 215 228 238 236 227 234 230 215 214 208 200 199 197 197 193 190 199 199 196 196 196 197 196 196 198 196 196 199 199 195 205 215 213 215 213 213 221 227 221 213 211 208 208 207 209 209 204 213 217 211 208 209 211 210 209 210 207 206
203 209 209 210 210 206 205 206 208 209 209 207 203 205 207 207 207 206 205 205 205 206 208 210 209 209 209 209 210 211 211 223 238 233 226 233 228 213 212 206 197 193 190 191 192 193 199 199 199 200 200 202 198 199 202 200 197 198 206 204 203 209 211 213 208 208 217 220 217 216 213 207 207 207 209 206 199 209 214 210 210 210 210 210 209 209 205 204
202 209 208 209 209 205 204 205 207 208 208 208 204 204 206 207 207 207 206 206 206 206 209 210 210 211 211 211 210 211 214 222 236 236 228 230 223 210 209 206 195 187 186 188 192 196 199 197 199 201 204 207 201 202 205 202 199 195 210 212 206 209 210 211 207 207 214 215 216 216 215 209 206 207 205 204 206 213 213 210 213 212 210 211 212 211 206 203
202 208 207 208 209 206 205 204 205 207 208 208 205 204 205 206 207 207 207 207 206 207 209 209 212 212 213 214 209 212 219 224 232 241 238 229 219 208 207 208 198 186 184 187 192 198 202 198 199 201 205 208 206 207 205 204 204 199 208 211 206 210 209 210 209 208 212 214 217 217 218 214 208 209 203 202 210 215 211 211 213 211 209 210 210 210 208 206
202 207 208 210 213 210 208 206 205 206 207 207 205 204 204 205 206 207 207 207 207 207 209 210 213 213 215 214 207 214 223 220 225 236 237 219 214 207 204 208 204 189 182 187 193 198 202 200 201 203 206 210 209 210 207 206 210 207 209 210 206 209 209 212 211 210 214 215 220 221 222 219 212 210 206 208 212 210 208 210 212 208 205 206 206 205 205 206
200 205 207 210 214 212 209 207 205 205 206 206 205 204 204 204 205 207 207 207 207 207 209 210 212 214 215 210 205 215 218 209 212 213 210 207 210 209 202 203 200 187 182 190 197 199 200 198 201 205 209 213 211 210 209 207 213 213 212 211 209 210 211 214 215 213 215 217 220 224 225 224 219 213 210 216 217 211 209 210 210 208 205 206 206 204 203 204
198 203 205 207 211 211 209 207 205 205 206 206 204 204 203 203 204 206 206 206 207 207 209 209 212 214 212 206 208 216 206 198 206 200 199 205 209 210 203 200 191 183 186 194 199 200 200 199 199 204 208 214 213 212 213 210 213 215 212 212 211 211 213 216 216 215 216 217 221 227 231 231 227 219 217 223 221 214 213 213 212 210 208 209 209 207 205 206
197 201 204 206 209 211 209 206 204 204 205 205 203 203 203 202 203 204 205 206 206 207 209 209 210 212 211 210 212 214 204 196 203 206 208 209 210 205 199 196 185 182 189 195 198 197 200 201 200 202 206 212 213 213 216 214 214 214 211 214 215 213 217 219 218 218 219 219 224 228 236 240 233 222 222 229 225 217 215 214 214 213 211 211 212 213 211 211
197 201 203 207 211 212 210 205 203 204 204 204 203 202 202 202 202 203 204 205 206 207 208 208 209 209 211 213 211 210 205 199 203 210 211 214 212 199 192 188 181 186 192 194 196 196 199 202 203 203 203 209 212 212 216 214 213 213 210 211 216 216 221 222 219 221 223 224 227 229 236 246 242 227 223 230 228 222 218 215 215 215 215 215 215 215 215 216
198 201 202 207 212 213 210 206 203 203 204 203 202 201 201 201 201 203 204 205 205 207 208 208 208 209 212 213 211 211 207 202 206 211 211 216 207 191 188 186 185 191 193 195 199 198 198 202 204 203 202 204 209 211 215 214 211 211 210 211 212 214 223 224 220 223 225 226 228 231 234 242 251 235 224 228 232 227 222 219 218 218 218 218 218 218 218 219
198 202 204 208 213 214 209 205 203 203 203 201 200 200 199 200 201 202 203 204 205 206 207 207 206 208 211 213 213 214 212 209 211 212 212 214 199 188 189 191 192 194 194 198 202 201 201 203 204 204 201 201 204 208 213 213 207 205 207 211 209 208 222 226 223 223 226 229 229 232 235 237 252 245 228 227 234 234 229 224 221 221 220 220 220 221 221 220
197 200 204 209 214 214 207 204 202 202 201 200 199 198 198 199 200 201 203 203 204 205 206 205 205 208 210 213 214 214 213 212 213 214 213 211 201 195 198 200 199 199 198 200 203 204 204 204 205 204 201 200 202 201 205 209 204 204 206 207 208 205 214 226 225 225 227 231 232 233 233 223 243 247 236 234 234 234 235 230 227 225 224 222 222 223 223 222
196 199 204 209 213 210 205 201 200 200 199 197 196 195 195 197 198 200 200 201 202 203 203 204 206 209 212 213 215 214 212 212 215 216 213 210 207 202 202 204 203 201 200 199 201 203 204 206 207 205 202 202 200 194 196 202 201 204 207 209 211 206 208 223 226 226 226 231 234 238 238 229 237 247 243 242 238 235 236 235 232 228 227 225 223 224 224 223
195 199 203 206 209 206 202 200 198 198 196 194 194 192 193 194 195 197 197 198 197 196 198 203 204 207 213 215 215 215 212 212 217 215 210 208 207 205 201 201 202 200 198 198 199 200 202 206 206 205 204 203 199 195 198 204 202 200 201 203 210 209 210 216 225 227 226 231 235 239 244 241 244 251 251 248 243 238 237 237 236 232 229 228 226 225 225 225
193 198 201 202 205 203 201 200 197 196 192 190 190 189 188 189 190 192 194 195 195 193 195 201 202 202 209 214 215 215 212 213 217 212 207 206 205 202 198 197 199 199 198 198 199 199 200 203 202 203 206 204 201 199 203 211 207 202 205 210 219 221 220 222 228 233 230 232 235 238 246 248 249 254 255 252 244 238 239 238 237 235 231 230 230 228 228 228
193 197 200 201 203 203 201 200 196 193 189 187 187 184 183 184 183 186 191 196 198 198 199 201 203 204 208 213 215 215 213 214 214 208 205 204 203 200 197 196 195 198 200 200 201 201 201 203 203 204 207 207 204 200 206 215 203 201 212 216 220 223 226 229 230 232 232 232 237 241 247 251 251 252 254 253 248 240 240 240 236 236 234 232 233 232 231 230
194 198 200 201 203 202 201 199 195 191 187 186 185 185 185 185 185 187 189 193 197 200 201 202 203 206 209 213 216 214 213 212 207 204 204 202 201 198 197 196 194 197 199 200 203 202 201 206 209 208 207 209 209 204 204 211 209 207 214 218 220 220 224 234 233 231 234 235 241 246 247 251 252 250 250 251 250 243 239 241 238 236 236 234 233 234 234 233
193 196 198 200 202 201 199 197 193 189 186 185 185 186 188 189 190 192 189 189 193 197 201 202 202 206 209 212 215 210 208 207 202 201 202 202 200 197 197 197 195 198 199 200 203 201 202 208 211 211 208 207 211 210 206 210 215 215 217 220 223 224 226 236 238 232 234 237 240 246 247 250 252 250 248 245 247 246 242 241 240 238 238 236 234 233 234 234
193 194 198 200 201 200 197 195 192 188 185 184 185 187 189 191 193 193 191 189 191 194 200 203 204 206 207 208 210 204 201 202 200 200 201 201 199 197 198 198 194 197 200 203 204 201 204 207 208 211 211 211 213 214 213 215 220 220 217 217 221 226 227 234 241 234 232 234 237 246 252 252 251 252 249 244 244 245 245 243 240 238 238 238 237 235 234 234
193 194 199 201 200 198 196 194 190 186 184 183 185 187 188 191 192 190 190 192 191 193 198 202 205 204 202 202 204 200 198 200 200 200 201 200 198 197 199 200 198 200 202 204 206 206 210 211 210 212 213 216 217 216 216 217 222 224 218 211 219 229 227 227 236 235 233 236 240 248 260 259 254 254 252 247 244 244 244 244 242 239 237 238 239 237 235 235
193 196 200 200 197 195 193 192 188 184 183 183 184 186 188 190 189 186 189 189 186 192 198 200 201 201 198 198 201 200 197 198 200 202 201 199 199 199 199 200 201 204 205 204 205 208 214 217 216 216 215 216 219 219 217 216 219 227 225 218 216 226 227 226 230 233 234 240 243 243 256 267 259 257 256 250 245 244 244 244 243 242 239 237 238 237 236 235
194 198 200 197 193 191 190 190 186 182 182 184 183 185 187 187 184 184 184 179 179 190 195 196 197 196 195 195 198 197 196 199 200 202 202 200 200 201 200 202 204 207 207 203 204 209 214 216 217 217 216 215 216 218 218 215 214 224 230 224 220 222 224 224 227 229 229 237 243 235 230 257 268 260 258 254 248 245 245 244 244 244 243 239 237 237 236 235
195 199 197 192 191 189 189 187 183 182 183 182 182 184 185 183 181 181 175 164 186 194 191 191 193 193 192 195 195 189 191 198 197 198 203 201 200 201 202 204 204 206 208 204 205 212 214 214 215 213 214 216 217 217 217 214 213 222 233 228 224 225 226 228 229 228 229 233 244 237 228 244 260 253 253 255 252 248 247 245 244 244 243 242 239 237 236 235
194 196 191 187 188 189 189 186 183 183 182 180 182 182 181 180 178 175 167 144 192 194 191 189 190 191 191 193 193 188 191 195 193 195 200 200 200 199 201 206 206 206 207 205 206 214 216 215 215 212 212 217 218 220 220 215 214 221 232 230 225 226 230 234 235 234 235 238 244 237 225 234 256 251 252 257 255 251 249 246 245 243 242 243 242 240 238 236
191 190 186 183 186 188 188 186 185 183 180 179 179 177 176 175 170 168 169 183 184 187 192 189 187 189 189 191 192 191 193 193 194 196 197 199 201 199 199 205 209 208 207 207 207 214 218 217 216 215 217 220 220 222 223 218 219 221 227 233 229 229 229 228 231 231 231 234 238 231 218 224 262 252 247 256 255 250 248 247 245 242 241 241 242 242 241 239
187 186 183 183 185 187 186 184 183 181 180 178 173 171 171 165 164 168 181 195 180 183 189 188 188 188 186 188 191 191 192 192 196 196 193 197 201 201 201 205 209 211 209 210 210 214 218 218 216 215 218 221 222 223 222 219 221 222 225 227 224 224 221 216 213 207 214 234 232 227 217 218 258 253 237 248 256 253 248 246 245 242 241 241 241 241 241 241
186 184 182 184 186 185 184 181 178 179 179 174 169 167 164 160 168 176 188 184 179 180 185 188 189 187 186 189 188 188 191 192 195 194 191 194 198 200 201 203 204 207 210 211 212 215 218 216 215 214 216 219 219 219 221 220 220 221 221 215 203 191 194 200 197 195 214 237 217 216 216 215 234 240 224 243 257 256 247 244 243 241 240 240 240 241 240 240
185 185 184 185 185 183 183 179 177 177 174 169 166 165 161 161 177 198 184 178 182 184 185 188 190 187 187 189 188 188 189 191 193 195 195 194 196 199 201 201 199 195 200 205 206 210 216 217 215 216 216 217 216 214 215 217 217 216 208 196 187 167 173 196 192 198 221 232 203 204 205 217 238 241 229 224 250 252 242 241 240 238 239 240 240 241 240 240
185 185 185 184 183 182 180 178 178 176 170 165 163 163 162 162 187 198 184 177 187 191 189 189 190 188 185 185 188 189 188 191 193 194 199 197 196 200 202 204 203 197 194 198 198 198 206 217 217 216 217 217 215 212 210 209 209 208 197 186 189 182 175 201 196 204 220 220 210 199 197 233 249 252 248 242 245 248 244 240 238 236 237 239 240 240 241 241
183 184 183 181 179 178 176 176 177 174 168 164 161 163 166 174 189 189 184 183 186 190 191 190 187 185 184 185 190 190 187 190 192 190 196 196 195 199 201 203 205 203 196 193 196 195 194 213 217 216 218 217 214 213 215 215 211 206 196 192 201 205 200 201 199 207 195 165 191 189 192 237 238 251 256 246 241 242 241 239 239 239 238 237 237 238 239 241
179 181 181 178 174 173 174 175 175 172 168 166 164 166 175 189 190 187 188 189 182 181 189 189 184 181 182 187 193 192 188 189 190 189 193 197 199 202 203 204 204 203 200 195 196 200 202 213 217 217 220 220 218 216 218 218 213 207 199 198 207 213 213 209 201 204 159 124 191 196 215 236 226 221 237 240 241 239 239 239 240 243 241 236 236 236 237 239
175 178 179 177 173 172 173 173 172 171 168 167 167 174 187 191 191 190 192 192 185 181 181 181 181 178 175 187 194 193 192 191 190 191 195 200 203 205 206 207 206 204 204 202 197 198 200 208 216 216 217 217 217 217 216 214 211 207 202 202 208 211 212 215 220 221 206 232 220 205 229 246 244 245 241 237 245 248 242 238 237 240 239 236 237 238 239 240
175 177 178 177 175 173 172 171 171 171 170 171 174 183 191 192 192 194 195 194 189 184 177 171 177 179 176 186 192 193 194 192 191 192 196 200 205 209 209 210 210 208 207 206 204 203 200 200 211 213 214 214 214 214 214 213 212 207 203 207 211 212 217 224 226 197 209 240 228 208 229 245 238 245 248 241 240 244 241 229 227 232 235 236 239 240 240 240
176 177 178 177 176 173 172 170 172 173 172 175 182 190 193 193 195 197 198 195 189 185 180 175 179 183 182 186 190 193 194 192 192 191 193 199 204 211 210 210 213 211 210 210 209 210 206 199 205 211 211 213 212 212 211 212 213 210 208 211 211 209 215 215 213 212 210 226 240 216 229 242 232 227 237 239 233 232 234 225 216 222 229 234 240 241 240 237
176 175 175 177 177 174 171 170 172 174 176 181 188 194 195 195 198 200 201 197 190 185 185 183 184 187 189 190 190 194 195 195 196 193 192 200 203 210 211 211 212 211 211 212 211 213 211 203 199 205 206 207 207 208 209 210 211 211 213 214 211 210 210 205 210 223 219 220 239 218 214 248 251 248 247 242 230 226 234 238 230 228 232 236 240 242 240 236
179 176 175 177 177 174 171 170 172 175 181 189 192 194 198 198 199 201 200 197 192 187 188 191 191 190 190 192 194 196 196 196 201 199 198 204 204 207 211 212 212 211 211 212 213 215 214 210 203 199 201 202 205 208 211 212 210 208 211 212 210 211 209 204 215 220 220 234 244 235 232 250 260 259 244 233 231 231 236 244 242 238 238 237 237 237 236 234
181 178 176 176 177 174 171 171 175 181 187 193 194 195 198 199 199 199 198 198 196 193 192 196 197 195 192 191 195 199 197 196 203 203 203 207 207 209 212 212 212 211 209 209 212 214 213 211 207 196 194 200 208 212 213 214 214 212 213 213 212 211 207 202 216 217 219 229 230 240 268 241 186 151 195 227 243 241 235 235 236 234 235 236 233 232 233 235
184 182 178 177 177 175 173 174 179 185 190 194 196 197 200 200 200 200 199 197 197 197 198 200 201 200 198 196 199 201 199 197 202 205 207 210 210 210 214 214 213 213 211 209 211 213 212 209 204 197 199 204 209 214 214 214 216 216 216 216 215 214 210 209 220 219 217 222 229 248 293 253 241 246 259 268 267 244 231 229 230 234 239 238 233 230 230 233
185 184 178 176 177 176 176 178 181 187 192 195 197 199 201 200 200 201 199 196 196 198 200 202 203 203 202 201 203 204 202 201 205 208 210 213 213 213 214 216 214 212 212 212 211 211 212 210 202 192 200 208 211 216 217 217 217 217 219 220 218 218 216 215 223 231 213 213 221 228 255 253 255 262 269 268 249 222 219 221 226 238 245 240 236 231 230 234
183 182 176 174 176 177 178 181 184 188 193 196 196 198 200 200 200 201 200 198 197 197 199 203 204 205 205 206 208 208 204 204 207 210 212 214 215 215 216 217 216 212 212 213 213 211 209 208 200 180 165 204 214 221 221 219 220 221 223 223 221 222 220 217 223 233 231 225 221 214 241 255 259 265 260 242 219 211 211 220 233 247 252 246 239 234 234 236
177 174 171 173 176 179 183 187 188 190 193 195 195 197 199 199 200 201 201 200 199 198 199 202 204 205 206 207 210 212 209 208 209 211 213 215 216 217 216 217 217 214 214 216 218 216 210 208 206 193 173 185 200 212 219 220 221 221 223 224 223 223 222 220 224 228 235 240 227 220 240 252 256 261 250 228 223 226 227 240 245 242 242 241 238 235 235 236
172 166 165 171 177 183 187 189 190 192 194 194 194 196 198 197 197 199 201 201 201 200 200 202 204 203 204 205 208 211 211 211 212 214 216 218 219 219 218 219 219 216 215 217 220 220 214 213 215 211 212 220 227 231 233 229 224 223 226 228 226 225 225 223 222 224 231 238 234 235 244 250 252 256 249 233 237 245 247 250 244 232 230 234 237 237 237 236
171 167 168 171 176 185 190 191 192 195 197 195 194 195 197 198 196 194 197 200 201 202 201 202 205 204 203 203 204 207 210 211 214 216 218 220 223 223 222 223 222 220 218 216 218 221 218 217 220 220 223 229 235 240 240 236 233 233 235 235 231 228 226 222 222 229 232 232 237 244 247 248 250 251 250 250 255 260 258 253 250 244 235 232 235 238 239 237
170 171 176 177 178 185 190 192 194 197 198 196 196 196 195 196 196 193 195 199 201 202 201 201 205 207 207 205 203 203 206 208 213 216 218 220 222 223 223 222 222 222 218 213 213 218 220 223 227 229 232 233 233 236 237 236 238 240 240 241 238 232 227 224 227 233 232 227 238 248 248 249 252 252 255 261 263 260 254 253 255 250 238 232 234 238 239 234
174 174 180 182 184 187 190 193 194 196 198 196 197 198 196 196 198 197 197 198 199 202 203 203 205 207 209 210 208 206 205 205 209 213 216 218 219 221 221 219 218 218 215 211 210 211 215 223 228 230 236 238 237 238 239 239 241 242 241 242 243 239 235 233 236 239 235 235 244 251 252 253 256 258 260 264 265 256 246 248 253 246 236 233 236 238 237 231
180 177 181 185 189 191 191 192 194 196 199 197 197 199 198 197 198 198 200 200 199 201 204 207 208 208 208 211 213 214 214 214 215 214 214 216 218 220 221 221 221 218 213 211 210 208 212 220 224 226 232 239 239 240 242 242 243 244 244 243 242 242 242 241 242 243 239 239 246 250 252 254 256 259 261 264 265 259 250 247 248 242 236 233 234 239 239 232
187 183 184 186 189 192 192 193 194 195 198 199 200 201 200 199 200 199 200 203 204 204 206 208 210 208 208 211 214 218 220 222 226 227 226 227 227 226 225 226 226 222 216 213 212 211 213 217 219 220 224 234 237 238 241 243 245 246 244 242 241 241 241 240 240 241 238 240 246 247 248 252 253 255 259 261 262 261 256 251 245 239 236 233 233 243 245 237
191 187 186 187 189 191 193 194 194 195 200 201 202 203 203 202 203 203 201 202 206 208 209 211 211 209 210 213 215 219 221 223 228 233 235 239 240 236 231 230 232 230 224 218 214 213 215 217 217 214 217 229 234 234 238 240 242 243 240 240 242 242 242 243 242 242 241 243 246 245 246 251 254 257 260 262 262 263 260 257 249 238 234 234 239 248 247 237
Height
3022 3027 3032 3036 3040 3044 3048 3053 3057 3062 3067 3071 3076 3080 3084 3087 3091 3094 3096 3099 3102 3104 3106 3108 3110 3111 3113 3115 3117 3119 3121 3123 3125 3125 3127 3131 3135 3137 3139 3141 3142 3143 3145 3145 3146 3151 3155 3156 3159 3161 3162 3163 3164 3166 3167 3169 3171 3173 3174 3176 3177 3179 3179 3180 3180 3181 3181 3181 3181 3182 3183 3184 3184 3185 3186 3187 3187 3188 3189 3190 3191 3191 3192 3193 3193 3194 3195 3196
3018 3024 3029 3033 3036 3040 3044 3049 3054 3058 3063 3068 3073 3077 3082 3085 3089 3092 3095 3098 3100 3103 3105 3107 3109 3111 3113 3115 3117 3119 3120 3122 3123 3123 3127 3132 3134 3136 3138 3140 3141 3142 3144 3145 3147 3150 3154 3156 3158 3160 3161 3162 3164 3166 3167 3168 3170 3172 3174 3176 3177 3178 3178 3178 3179 3179 3180 3180 3181 3181 3182 3183 3184 3185 3186 3186 3187 3188 3189 3189 3190 3190 3191 3192 3193 3193 3194 3195
3015 3021 3025 3029 3033 3037 3041 3045 3050 3055 3060 3065 3070 3074 3079 3083 3087 3090 3093 3096 3099 3102 3104 3106 3108 3110 3112 3114 3117 3118 3120 3121 3120 3122 3128 3131 3132 3135 3137 3138 3140 3140 3142 3145 3146 3148 3152 3154 3156 3158 3159 3161 3163 3165 3166 3167 3169 3171 3172 3175 3176 3176 3176 3177 3178 3178 3179 3180 3180 3181 3181 3182 3183 3184 3185 3185 3186 3187 3188 3188 3189 3190 3191 3192 3192 3193 3194 3195
3012 3017 3022 3026 3030 3034 3038 3042 3047 3052 3057 3063 3067 3072 3076 3080 3084 3088 3092 3095 3098 3101 3103 3105 3107 3109 3111 3114 3116 3117 3119 3120 3119 3124 3129 3129 3130 3134 3136 3137 3138 3139 3141 3144 3145 3147 3151 3154 3155 3157 3158 3160 3162 3164 3165 3167 3168 3170 3171 3174 3174 3174 3175 3177 3177 3178 3179 3179 3179 3180 3180 3181 3182 3183 3184 3185 3186 3186 3187 3188 3188 3189 3190 3190 3191 3192 3193 3194
3009 3014 3018 3022 3027 3031 3035 3038 3043 3049 3054 3060 3065 3069 3074 3078 3082 3086 3090 3093 3096 3099 3102 3104 3106 3108 3111 3113 3115 3116 3119 3119 3118 3124 3127 3125 3128 3131 3135 3136 3137 3139 3140 3141 3144 3148 3151 3153 3155 3156 3157 3159 3161 3163 3164 3166 3167 3169 3170 3172 3173 3173 3175 3176 3177 3178 3178 3178 3179 3179 3180 3181 3181 3182 3183 3184 3186 3186 3186 3186 3187 3187 3188 3189 3190 3191 3192 3193
3005 3010 3015 3019 3024 3028 3031 3035 3040 3045 3050 3056 3062 3066 3071 3075 3080 3084 3088 3092 3095 3098 3100 3102 3105 3107 3109 3111 3113 3114 3117 3118 3118 3122 3123 3124 3127 3130 3133 3135 3136 3138 3138 3141 3144 3148 3150 3152 3154 3155 3157 3158 3160 3162 3163 3165 3166 3169 3170 3171 3172 3173 3174 3176 3176 3177 3177 3178 3179 3179 3179 3180 3181 3181 3182 3183 3184 3184 3184 3185 3186 3187 3188 3189 3190 3191 3192 3193
3001 3006 3010 3015 3020 3025 3028 3032 3036 3041 3046 3052 3058 3063 3068 3073 3078 3082 3086 3090 3093 3096 3099 3101 3104 3106 3108 3109 3111 3113 3115 3117 3117 3120 3122 3122 3125 3128 3131 3133 3134 3136 3137 3140 3144 3147 3149 3151 3153 3155 3157 3158 3160 3161 3163 3165 3166 3169 3169 3170 3172 3173 3174 3175 3176 3177 3177 3178 3178 3178 3179 3179 3180 3180 3181 3183 3183 3183 3183 3184 3185 3187 3188 3188 3190 3191 3192 3192
2997 3002 3007 3011 3017 3022 3025 3029 3033 3038 3043 3048 3055 3060 3065 3070 3075 3080 3084 3088 3091 3094 3097 3100 3102 3105 3106 3108 3110 3112 3114 3117 3118 3119 3120 3121 3122 3126 3128 3130 3133 3134 3137 3140 3144 3147 3149 3150 3152 3154 3157 3158 3160 3161 3162 3165 3166 3167 3168 3169 3171 3172 3173 3175 3176 3176 3177 3177 3178 3178 3179 3179 3179 3180 3181 3182 3182 3182 3183 3184 3185 3186 3187 3188 3189 3190 3191 3192
2993 2998 3004 3009 3014 3018 3022 3026 3030 3034 3039 3045 3051 3057 3062 3068 3073 3077 3082 3086 3090 3093 3096 3098 3101 3103 3105 3106 3109 3111 3113 3116 3118 3119 3119 3119 3121 3124 3126 3129 3131 3134 3137 3141 3144 3146 3148 3149 3152 3154 3156 3158 3159 3160 3162 3164 3165 3165 3167 3168 3170 3171 3173 3174 3175 3176 3176 3177 3177 3178 3178 3179 3179 3179 3180 3180 3180 3182 3183 3183 3184 3185 3186 3187 3188 3189 3190 3191
2990 2996 3002 3007 3011 3015 3019 3023 3027 3031 3036 3041 3047 3054 3059 3065 3070 3075 3080 3084 3088 3091 3094 3097 3099 3102 3104 3105 3108 3110 3113 3116 3118 3119 3119 3119 3121 3123 3125 3127 3130 3134 3137 3141 3143 3145 3147 3150 3152 3155 3156 3157 3159 3160 3161 3163 3163 3164 3166 3168 3169 3170 3172 3173 3174 3175 3176 3176 3177 3177 3177 3178 3178 3179 3179 3179 3180 3182 3182 3183 3184 3185 3186 3186 3187 3188 3189 3190
2987 2993 2998 3003 3008 3011 3015 3019 3024 3028 3033 3038 3044 3051 3057 3063 3068 3073 3078 3082 3086 3089 3092 3095 3098 3100 3102 3104 3107 3109 3113 3115 3117 3118 3119 3120 3121 3123 3125 3127 3129 3133 3137 3140 3143 3146 3149 3150 3152 3154 3155 3156 3157 3158 3160 3161 3162 3163 3166 3167 3168 3169 3171 3172 3173 3174 3175 3175 3176 3176 3177 3177 3177 3178 3178 3179 3180 3181 3182 3183 3184 3184 3185 3186 3187 3188 3188 3189
2984 2990 2995 3000 3004 3008 3012 3016 3020 3025 3029 3035 3041 3048 3054 3060 3065 3071 3076 3081 3085 3088 3090 3094 3097 3100 3101 3103 3106 3109 3111 3114 3115 3117 3118 3120 3121 3123 3125 3127 3129 3132 3136 3139 3143 3146 3148 3150 3151 3152 3153 3154 3156 3157 3158 3159 3161 3163 3165 3166 3167 3168 3169 3170 3172 3173 3173 3174 3175 3176 3176 3176 3176 3177 3178 3178 3179 3180 3181 3182 3183 3184 3184 3185 3186 3187 3188 3189
2981 2987 2992 2997 3001 3005 3009 3013 3017 3022 3026 3032 3038 3045 3051 3057 3063 3069 3074 3079 3082 3085 3089 3092 3095 3099 3100 3102 3105 3107 3109 3112 3114 3116 3117 3119 3120 3121 3124 3126 3129 3133 3135 3138 3141 3144 3146 3148 3149 3150 3151 3153 3154 3156 3156 3158 3160 3162 3164 3165 3166 3167 3167 3168 3170 3171 3172 3173 3174 3175 3175 3175 3175 3176 3177 3177 3178 3179 3180 3181 3182 3183 3183 3184 3185 3186 3187 3188
2978 2984 2989 2994 2998 3003 3006 3010 3015 3019 3024 3030 3036 3042 3048 3055 3061 3066 3072 3077 3081 3084 3087 3091 3094 3097 3099 3101 3105 3106 3108 3111 3113 3115 3116 3118 3119 3121 3123 3126 3129 3132 3135 3137 3139 3142 3144 3146 3148 3149 3150 3151 3153 3154 3156 3158 3159 3161 3163 3163 3164 3166 3165 3166 3169 3170 3171 3171 3173 3174 3174 3175 3175 3175 3176 3177 3177 3178 3180 3181 3181 3182 3182 3183 3184 3185 3186 3187
2975 2981 2986 2990 2995 3000 3004 3008 3012 3017 3021 3027 3033 3039 3046 3052 3058 3064 3070 3074 3078 3082 3085 3090 3093 3096 3098 3100 3102 3104 3107 3109 3111 3113 3115 3117 3119 3121 3123 3126 3129 3131 3134 3137 3139 3141 3143 3144 3146 3147 3148 3150 3151 3153 3155 3156 3158 3160 3160 3161 3162 3164 3164 3165 3167 3168 3169 3170 3171 3172 3173 3174 3173 3173 3175 3176 3176 3177 3178 3180 3180 3181 3182 3182 3183 3184 3185 3186
2972 2978 2983 2988 2993 2998 3002 3006 3010 3014 3019 3024 3030 3036 3043 3050 3056 3062 3067 3072 3076 3080 3085 3089 3092 3094 3096 3098 3099 3101 3104 3107 3109 3112 3114 3116 3118 3120 3123 3125 3128 3130 3133 3135 3138 3140 3142 3143 3144 3145 3146 3148 3150 3152 3154 3155 3156 3157 3158 3159 3160 3162 3162 3163 3164 3166 3167 3168 3170 3170 3171 3173 3172 3172 3174 3175 3175 3176 3177 3178 3179 3180 3180 3181 3182 3183 3184 3185
2970 2976 2980 2985 2990 2995 2999 3003 3007 3011 3016 3021 3027 3034 3041 3047 3053 3059 3065 3069 3074 3079 3084 3087 3090 3093 3094 3095 3096 3098 3101 3105 3108 3111 3113 3115 3117 3119 3121 3124 3126 3129 3131 3134 3136 3138 3140 3141 3142 3144 3145 3147 3149 3151 3153 3152 3153 3153 3155 3158 3158 3160 3161 3161 3162 3163 3165 3167 3168 3168 3169 3171 3171 3171 3172 3173 3174 3175 3176 3177 3177 3178 3179 3180 3181 3182 3183 3184
2968 2973 2978 2983 2988 2993 2997 3000 3004 3008 3013 3019 3025 3031 3038 3044 3050 3056 3061 3066 3072 3078 3084 3085 3088 3090 3090 3089 3091 3094 3098 3103 3107 3109 3112 3114 3116 3118 3120 3123 3125 3127 3130 3132 3134 3136 3138 3139 3141 3143 3144 3145 3146 3148 3148 3148 3150 3151 3153 3156 3157 3158 3160 3160 3160 3161 3164 3165 3166 3166 3166 3168 3170 3170 3171 3172 3173 3173 3174 3175 3175 3176 3178 3178 3179 3180 3181 3183
2966 2971 2975 2981 2986 2990 2994 2998 3002 3006 3011 3016 3022 3028 3035 3041 3048 3054 3059 3063 3066 3070 3073 3074 3077 3079 3080 3083 3087 3091 3097 3102 3105 3107 3110 3112 3114 3116 3119 3122 3124 3126 3128 3129 3131 3133 3135 3137 3139 3140 3140 3141 3142 3145 3147 3148 3150 3151 3152 3155 3156 3157 3158 3158 3158 3160 3162 3163 3163 3164 3164 3166 3168 3169 3169 3170 3170 3172 3172 3173 3174 3175 3176 3176 3177 3179 3180 3181
2963 2968 2973 2979 2984 2988 2992 2996 2999 3004 3008 3012 3017 3023 3028 3035 3042 3049 3055 3059 3061 3064 3065 3067 3071 3075 3077 3080 3084 3090 3096 3100 3102 3105 3108 3111 3113 3115 3117 3120 3122 3124 3126 3128 3129 3131 3134 3135 3135 3135 3137 3140 3142 3145 3147 3148 3149 3150 3152 3154 3155 3156 3156 3156 3156 3158 3160 3161 3161 3162 3163 3164 3165 3167 3168 3167 3168 3169 3170 3171 3172 3173 3174 3175 3176 3177 3178 3180
2961 2966 2971 2976 2981 2986 2990 2994 2998 3003 3007 3011 3015 3019 3023 3027 3032 3036 3042 3050 3057 3061 3063 3066 3072 3075 3076 3080 3084 3090 3095 3097 3100 3103 3106 3109 3111 3113 3115 3117 3120 3121 3123 3126 3128 3130 3132 3132 3132 3135 3138 3140 3142 3144 3145 3146 3148 3150 3151 3152 3153 3154 3154 3154 3155 3157 3159 3160 3160 3161 3161 3161 3162 3164 3165 3165 3165 3166 3168 3169 3170 3171 3172 3172 3174 3175 3177 3178
2959 2964 2969 2974 2979 2984 2988 2993 2997 3001 3005 3010 3016 3021 3025 3028 3030 3032 3037 3043 3050 3056 3060 3064 3070 3073 3076 3081 3085 3088 3092 3095 3098 3101 3104 3107 3109 3111 3113 3115 3118 3119 3122 3124 3126 3129 3129 3129 3132 3135 3137 3139 3141 3142 3144 3145 3147 3148 3149 3150 3151 3152 3152 3153 3154 3156 3157 3158 3159 3158 3158 3158 3159 3161 3162 3163 3163 3164 3165 3167 3168 3169 3169 3170 3171 3173 3175 3176
2956 2962 2967 2972 2977 2983 2987 2991 2996 3000 3003 3008 3014 3019 3024 3028 3032 3038 3042 3043 3048 3054 3059 3064 3068 3072 3077 3082 3084 3086 3090 3092 3095 3098 3101 3105 3107 3110 3112 3114 3116 3118 3120 3122 3124 3126 3126 3127 3131 3133 3135 3138 3140 3141 3144 3145 3146 3147 3148 3149 3150 3150 3152 3153 3153 3155 3156 3157 3156 3156 3156 3156 3156 3157 3158 3160 3161 3161 3163 3164 3165 3167 3167 3168 3169 3171 3172 3173
2954 2960 2965 2970 2976 2981 2985 2990 2994 2998 3003 3008 3013 3018 3023 3027 3032 3039 3044 3047 3051 3055 3059 3064 3069 3073 3077 3082 3084 3086 3088 3091 3094 3096 3100 3103 3106 3108 3110 3113 3115 3116 3118 3120 3123 3125 3126 3127 3129 3132 3135 3137 3139 3140 3142 3144 3145 3145 3146 3148 3148 3149 3151 3152 3152 3153 3154 3155 3155 3155 3155 3153 3153 3154 3155 3158 3158 3159 3160 3161 3163 3164 3165 3166 3167 3169 3170 3171
2953 2958 2963 2968 2973 2978 2983 2988 2991 2996 3002 3006 3011 3017 3023 3027 3033 3039 3044 3049 3054 3057 3059 3064 3069 3073 3077 3081 3084 3085 3087 3090 3093 3096 3099 3102 3104 3107 3109 3112 3114 3115 3117 3120 3123 3124 3125 3127 3130 3132 3134 3136 3137 3139 3140 3142 3144 3144 3144 3146 3147 3148 3150 3151 3151 3153 3153 3153 3153 3155 3155 3150 3150 3152 3153 3154 3156 3156 3158 3158 3160 3161 3163 3164 3165 3166 3168 3169
2951 2955 2960 2966 2970 2975 2980 2984 2989 2994 2998 3004 3010 3016 3021 3027 3033 3039 3043 3049 3054 3055 3058 3063 3067 3071 3075 3079 3081 3084 3088 3089 3092 3096 3098 3100 3103 3105 3108 3110 3112 3114 3116 3119 3122 3122 3123 3126 3128 3131 3133 3134 3135 3136 3138 3140 3143 3143 3143 3144 3146 3147 3149 3149 3151 3152 3152 3151 3151 3153 3153 3150 3148 3149 3150 3151 3153 3154 3155 3155 3157 3159 3160 3161 3163 3164 3165 3166
2948 2953 2958 2962 2967 2971 2975 2979 2985 2990 2995 3002 3009 3014 3021 3027 3032 3037 3044 3052 3053 3052 3056 3061 3064 3068 3072 3075 3078 3081 3084 3085 3090 3094 3096 3098 3101 3103 3106 3107 3110 3112 3114 3117 3119 3119 3120 3124 3126 3128 3131 3132 3133 3134 3136 3138 3141 3142 3141 3143 3145 3146 3148 3149 3150 3151 3151 3150 3150 3150 3151 3150 3148 3147 3148 3149 3150 3151 3152 3153 3154 3156 3157 3158 3160 3161 3162 3163
2946 2951 2955 2960 2966 2970 2974 2979 2983 2987 2994 3001 3007 3013 3020 3026 3032 3037 3043 3049 3048 3048 3053 3057 3061 3065 3069 3073 3076 3078 3079 3082 3086 3089 3092 3096 3099 3101 3104 3106 3108 3109 3111 3115 3116 3117 3119 3122 3124 3127 3129 3130 3131 3133 3135 3137 3139 3140 3140 3142 3144 3145 3146 3147 3148 3149 3149 3150 3149 3148 3150 3150 3145 3145 3146 3146 3148 3149 3149 3150 3151 3152 3154 3155 3157 3158 3159 3160
2944 2949 2954 2959 2964 2969 2975 2981 2985 2990 2996 3001 3006 3014 3020 3026 3033 3038 3042 3044 3042 3044 3050 3054 3058 3062 3067 3071 3074 3075 3077 3080 3083 3085 3090 3094 3097 3100 3102 3104 3107 3108 3110 3113 3114 3116 3118 3121 3124 3126 3128 3128 3130 3132 3134 3136 3137 3138 3140 3141 3143 3144 3145 3146 3147 3148 3149 3149 3147 3146 3148 3148 3143 3142 3144 3144 3144 3145 3147 3148 3148 3149 3151 3152 3153 3155 3156 3157
2942 2947 2952 2956 2959 2965 2972 2980 2988 2994 2999 3003 3009 3015 3021 3027 3032 3037 3040 3038 3038 3042 3047 3051 3055 3058 3063 3067 3069 3072 3076 3078 3080 3084 3089 3092 3095 3098 3100 3103 3106 3108 3110 3112 3113 3115 3117 3119 3122 3124 3125 3127 3129 3131 3133 3135 3135 3137 3139 3140 3142 3143 3144 3145 3146 3147 3149 3146 3144 3144 3145 3147 3143 3140 3141 3141 3141 3143 3145 3145 3145 3147 3148 3149 3150 3151 3153 3154
2941 2946 2950 2952 2957 2963 2970 2977 2985 2992 2998 3004 3011 3016 3022 3028 3031 3033 3034 3033 3034 3039 3042 3047 3052 3056 3059 3061 3064 3069 3072 3075 3078 3081 3084 3088 3092 3095 3097 3100 3103 3107 3109 3110 3111 3113 3115 3117 3119 3120 3122 3124 3127 3129 3131 3132 3134 3135 3137 3139 3141 3142 3144 3145 3145 3147 3146 3142 3141 3142 3144 3146 3143 3138 3138 3139 3139 3140 3142 3142 3142 3144 3145 3146 3147 3148 3150 3151
2940 2945 2948 2952 2958 2965 2972 2978 2983 2988 2995 3001 3008 3014 3020 3026 3029 3028 3028 3029 3032 3034 3037 3042 3047 3051 3055 3059 3062 3065 3068 3072 3075 3078 3081 3084 3087 3090 3093 3096 3098 3102 3105 3106 3108 3111 3113 3115 3116 3118 3119 3121 3124 3126 3128 3130 3131 3134 3136 3137 3139 3141 3143 3143 3142 3143 3142 3140 3140 3141 3143 3143 3138 3135 3136 3137 3137 3138 3139 3139 3140 3141 3142 3143 3145 3146 3147 3148
2939 2943 2948 2953 2961 2969 2975 2980 2984 2988 2993 2999 3006 3012 3016 3020 3021 3020 3022 3025 3027 3029 3033 3038 3043 3049 3054 3058 3060 3063 3067 3071 3073 3077 3080 3083 3086 3088 3091 3094 3096 3099 3101 3103 3106 3109 3111 3113 3114 3116 3117 3119 3122 3124 3125 3126 3128 3131 3133 3135 3136 3137 3139 3140 3139 3139 3139 3138 3139 3141 3142 3140 3134 3132 3134 3135 3136 3136 3137 3138 3138 3139 3140 3141 3142 3143 3144 3145
2939 2943 2948 2954 2962 2970 2976 2980 2985 2989 2994 2999 3004 3010 3014 3014 3013 3015 3019 3021 3023 3027 3031 3035 3041 3048 3053 3056 3058 3060 3065 3068 3071 3074 3078 3081 3083 3085 3088 3091 3093 3097 3099 3101 3104 3106 3108 3109 3110 3113 3115 3117 3120 3121 3123 3124 3126 3129 3131 3133 3134 3133 3135 3136 3135 3135 3136 3136 3138 3140 3140 3135 3131 3130 3130 3132 3133 3133 3134 3136 3136 3137 3138 3139 3140 3141 3142 3143
2938 2944 2949 2954 2961 2967 2973 2979 2984 2989 2993 2998 3003 3007 3008 3007 3007 3010 3013 3015 3019 3024 3028 3034 3040 3046 3052 3055 3056 3059 3062 3064 3068 3072 3074 3076 3078 3080 3083 3086 3089 3093 3095 3097 3100 3102 3105 3106 3107 3111 3113 3116 3119 3120 3122 3124 3126 3127 3129 3131 3131 3131 3132 3132 3132 3132 3133 3135 3135 3136 3134 3129 3128 3129 3129 3130 3130 3130 3132 3133 3134 3135 3136 3137 3138 3139 3140 3141
2937 2942 2948 2953 2958 2964 2970 2976 2983 2988 2991 2995 3000 3002 3001 3000 3003 3006 3007 3011 3015 3017 3024 3034 3040 3043 3048 3051 3053 3057 3060 3062 3065 3069 3071 3074 3076 3077 3080 3082 3085 3088 3091 3094 3097 3099 3102 3103 3105 3108 3110 3113 3116 3118 3120 3122 3123 3125 3127 3128 3128 3129 3130 3131 3132 3132 3133 3134 3131 3130 3129 3127 3128 3128 3128 3129 3129 3129 3130 3130 3132 3133 3134 3135 3136 3137 3138 3139
2934 2939 2946 2952 2957 2962 2968 2975 2981 2986 2991 2994 2995 2994 2994 2997 3000 3002 3005 3009 3014 3017 3022 3030 3035 3038 3041 3044 3048 3052 3056 3059 3062 3065 3068 3071 3073 3074 3077 3080 3082 3085 3089 3092 3094 3095 3098 3101 3102 3105 3108 3110 3113 3116 3117 3119 3121 3122 3124 3125 3127 3129 3130 3131 3132 3132 3132 3132 3128 3126 3126 3126 3127 3126 3125 3127 3128 3128 3129 3129 3130 3131 3132 3133 3134 3135 3137 3137
2931 2937 2944 2950 2955 2961 2967 2975 2981 2985 2989 2991 2990 2990 2992 2996 2999 3000 3004 3008 3014 3018 3022 3025 3029 3035 3037 3040 3044 3048 3052 3055 3058 3061 3064 3067 3069 3070 3073 3076 3079 3083 3087 3090 3092 3094 3096 3099 3101 3103 3105 3109 3112 3114 3116 3117 3119 3120 3122 3123 3126 3128 3128 3129 3130 3130 3130 3129 3126 3124 3124 3124 3124 3124 3124 3125 3126 3127 3128 3128 3129 3130 3131 3132 3132 3134 3135 3136
2930 2936 2942 2948 2954 2960 2966 2972 2979 2985 2987 2986 2985 2987 2991 2994 2997 3000 3004 3009 3014 3018 3020 3022 3026 3031 3035 3038 3041 3045 3049 3053 3055 3058 3061 3064 3066 3068 3070 3073 3076 3080 3084 3087 3090 3092 3094 3097 3099 3101 3103 3106 3109 3111 3112 3114 3116 3119 3120 3121 3123 3124 3125 3125 3126 3126 3126 3126 3124 3123 3122 3120 3119 3121 3123 3125 3125 3126 3126 3127 3128 3129 3130 3131 3131 3132 3133 3134
2927 2933 2939 2945 2952 2958 2965 2971 2977 2981 2981 2978 2979 2984 2987 2990 2995 2999 3004 3009 3013 3016 3019 3021 3023 3027 3032 3036 3040 3042 3047 3052 3054 3056 3059 3061 3063 3065 3068 3071 3074 3077 3081 3085 3088 3091 3093 3095 3096 3099 3102 3104 3106 3107 3109 3110 3113 3115 3117 3118 3119 3121 3122 3123 3123 3123 3123 3123 3122 3121 3120 3117 3116 3118 3120 3122 3123 3124 3125 3126 3127 3128 3129 3129 3129 3130 3131 3132
2924 2930 2935 2942 2949 2955 2962 2968 2972 2973 2973 2974 2977 2981 2985 2989 2993 2998 3003 3007 3012 3015 3017 3019 3022 3025 3028 3032 3036 3040 3045 3049 3051 3054 3056 3058 3060 3063 3065 3069 3071 3075 3079 3082 3085 3088 3091 3093 3094 3097 3099 3101 3103 3105 3107 3109 3110 3112 3113 3114 3116 3118 3120 3121 3121 3120 3121 3121 3120 3119 3119 3116 3116 3117 3119 3120 3122 3122 3123 3124 3125 3126 3127 3127 3128 3128 3129 3131
2921 2925 2931 2938 2945 2951 2957 2961 2964 2967 2968 2971 2976 2979 2983 2988 2992 2996 3001 3006 3010 3014 3016 3019 3022 3024 3026 3029 3033 3037 3042 3046 3048 3051 3053 3054 3057 3060 3063 3067 3070 3073 3077 3079 3082 3085 3089 3091 3093 3095 3097 3099 3101 3103 3105 3107 3108 3110 3111 3112 3114 3116 3118 3119 3118 3117 3118 3119 3119 3120 3119 3115 3115 3116 3118 3120 3121 3121 3122 3123 3123 3124 3125 3126 3126 3127 3128 3130
2917 2923 2930 2937 2942 2948 2953 2956 2960 2964 2965 2968 2973 2978 2981 2986 2990 2994 2999 3004 3008 3012 3015 3018 3020 3023 3026 3028 3031 3034 3039 3042 3045 3048 3051 3053 3057 3059 3062 3065 3068 3072 3075 3077 3080 3084 3087 3090 3092 3094 3097 3098 3100 3101 3103 3105 3107 3108 3109 3110 3112 3113 3114 3116 3116 3115 3116 3116 3118 3120 3117 3113 3113 3115 3117 3118 3119 3120 3121 3122 3123 3124 3124 3125 3125 3126 3127 3128
2913 2921 2928 2935 2941 2946 2949 2950 2952 2955 2959 2964 2970 2975 2979 2984 2988 2992 2997 3001 3005 3008 3012 3015 3018 3021 3024 3027 3030 3033 3037 3040 3043 3046 3049 3052 3055 3058 3061 3064 3067 3069 3072 3074 3077 3080 3084 3086 3088 3092 3096 3098 3100 3101 3102 3103 3104 3104 3105 3107 3108 3110 3112 3113 3114 3115 3114 3113 3116 3117 3113 3111 3112 3113 3114 3116 3118 3119 3120 3121 3122 3123 3123 3124 3124 3125 3126 3126
2910 2920 2927 2933 2939 2942 2944 2946 2948 2949 2953 2960 2967 2972 2976 2982 2986 2990 2994 2999 3002 3006 3010 3013 3016 3020 3023 3027 3030 3033 3036 3039 3041 3044 3047 3049 3052 3056 3059 3062 3065 3068 3070 3073 3076 3079 3081 3083 3084 3087 3091 3093 3095 3095 3095 3097 3098 3100 3101 3102 3105 3107 3109 3111 3112 3113 3112 3111 3112 3112 3110 3109 3111 3111 3112 3115 3117 3118 3119 3120 3121 3122 3122 3122 3123 3123 3123 3124
2905 2913 2922 2930 2938 2940 2940 2943 2947 2948 2951 2957 2965 2970 2974 2979 2983 2988 2993 2997 3001 3005 3008 3011 3015 3019 3022 3026 3028 3031 3034 3037 3039 3041 3044 3046 3049 3053 3057 3059 3063 3066 3068 3072 3075 3078 3080 3080 3081 3083 3084 3085 3087 3088 3090 3093 3095 3096 3097 3099 3101 3103 3105 3108 3110 3109 3109 3109 3109 3108 3108 3108 3108 3109 3110 3112 3114 3116 3118 3119 3119 3120 3120 3120 3121 3122 3122 3123
2903 2905 2909 2916 2927 2936 2939 2941 2944 2946 2949 2956 2961 2965 2970 2975 2980 2986 2991 2995 2999 3002 3006 3010 3013 3015 3018 3022 3025 3028 3031 3034 3036 3039 3042 3044 3047 3051 3054 3057 3060 3063 3066 3069 3071 3074 3078 3078 3079 3081 3081 3083 3085 3087 3089 3091 3091 3092 3094 3095 3097 3099 3101 3104 3105 3104 3106 3107 3105 3104 3105 3105 3104 3106 3108 3109 3112 3114 3115 3117 3118 3118 3119 3119 3120 3120 3121 3121
2901 2905 2907 2908 2911 2917 2924 2931 2937 2942 2948 2955 2960 2962 2967 2972 2977 2981 2986 2991 2996 2999 3003 3006 3009 3012 3015 3018 3021 3024 3028 3031 3034 3036 3039 3041 3044 3048 3051 3054 3057 3060 3063 3066 3067 3070 3073 3076 3078 3080 3080 3082 3084 3085 3087 3088 3089 3090 3091 3092 3093 3096 3097 3098 3099 3100 3103 3103 3100 3100 3102 3101 3101 3104 3106 3107 3110 3112 3113 3115 3116 3116 3117 3117 3118 3118 3119 3119
2900 2903 2909 2913 2911 2912 2917 2924 2933 2940 2946 2953 2957 2960 2964 2968 2973 2977 2981 2986 2991 2996 2999 3002 3005 3009 3013 3016 3019 3021 3023 3026 3028 3031 3034 3037 3041 3044 3047 3050 3053 3056 3060 3062 3064 3066 3069 3071 3074 3078 3079 3080 3082 3083 3085 3086 3087 3088 3089 3090 3091 3093 3094 3095 3096 3097 3099 3098 3096 3097 3098 3097 3098 3102 3105 3106 3108 3110 3111 3112 3114 3114 3115 3115 3116 3116 3116 3117
2899 2901 2906 2911 2914 2917 2921 2926 2933 2939 2945 2951 2955 2958 2962 2966 2970 2975 2979 2983 2986 2991 2995 2998 3001 3006 3010 3014 3017 3019 3020 3023 3024 3027 3031 3034 3038 3041 3044 3046 3049 3053 3057 3060 3062 3064 3066 3068 3071 3075 3076 3077 3079 3081 3082 3083 3084 3084 3086 3087 3088 3090 3092 3092 3093 3094 3095 3094 3093 3095 3095 3094 3095 3099 3102 3103 3104 3106 3108 3110 3112 3112 3113 3113 3113 3114 3114 3115
2899 2901 2904 2907 2911 2916 2921 2925 2931 2937 2941 2946 2949 2953 2958 2963 2967 2972 2977 2981 2984 2987 2991 2995 2999 3005 3009 3012 3015 3017 3020 3024 3026 3029 3032 3034 3037 3040 3042 3044 3047 3050 3053 3056 3059 3061 3063 3065 3067 3071 3073 3073 3075 3078 3079 3080 3082 3081 3081 3083 3084 3085 3087 3087 3087 3088 3089 3090 3091 3092 3090 3089 3092 3096 3098 3099 3100 3102 3105 3107 3109 3110 3110 3110 3111 3112 3113 3113
2899 2901 2903 2906 2909 2914 2918 2923 2930 2934 2936 2939 2944 2949 2954 2960 2965 2970 2975 2980 2983 2987 2990 2994 2998 3003 3007 3009 3012 3016 3020 3024 3026 3029 3032 3034 3037 3039 3041 3043 3045 3047 3049 3052 3054 3057 3059 3061 3063 3067 3069 3068 3071 3073 3075 3078 3078 3074 3074 3077 3079 3080 3081 3082 3082 3083 3086 3087 3087 3086 3085 3086 3090 3093 3094 3095 3096 3098 3101 3103 3105 3107 3108 3108 3108 3110 3111 3111